AAL4547 KSAN-KSAT

Flight info

Callsign AAL4547
Flight time 2h 21m
Altitude 39000
Route ZZOOO4 GBN SKTTR Q4 ELP J86 FST J138 SHUCK MOPPP DNKIN2
Aircraft A20N/M-SDE2E3FGHIRWXY/LB1

Departure

Time 2026-04-25 20:13
Airport San Diego International Airport (KSAN)

Arrival

Time 2026-04-25 22:34
Airport San Antonio International Airport (KSAT)
Time Latitude Longitude Altitude Speed Heading
2026-04-25 19:57 32.73379 -117.20350 27 ft 0 kts 262°
2026-04-25 20:02 32.73382 -117.20321 23 ft 5 kts 268°
2026-04-25 20:02 32.73376 -117.20279 25 ft 5 kts 316°
2026-04-25 20:03 32.73374 -117.20275 27 ft 0 kts 335°
2026-04-25 20:05 32.73386 -117.20277 24 ft 12 kts 356°
2026-04-25 20:05 32.73421 -117.20274 22 ft 0 kts 22°
2026-04-25 20:05 32.73490 -117.20245 23 ft 15 kts 21°
2026-04-25 20:05 32.73529 -117.20144 27 ft 15 kts 94°
2026-04-25 20:06 32.73512 -117.20006 28 ft 19 kts 105°
2026-04-25 20:06 32.73477 -117.19865 27 ft 17 kts 110°
2026-04-25 20:06 32.73432 -117.19715 30 ft 22 kts 109°
2026-04-25 20:06 32.73386 -117.19531 27 ft 24 kts 99°
2026-04-25 20:07 32.73343 -117.19326 25 ft 27 kts 111°
2026-04-25 20:07 32.73293 -117.19101 28 ft 29 kts 98°
2026-04-25 20:07 32.73230 -117.18877 27 ft 27 kts 105°
2026-04-25 20:07 32.73180 -117.18667 28 ft 28 kts 106°
2026-04-25 20:08 32.73125 -117.18440 26 ft 26 kts 103°
2026-04-25 20:08 32.73092 -117.18300 26 ft 13 kts 107°
2026-04-25 20:08 32.73054 -117.18149 24 ft 23 kts 106°
2026-04-25 20:08 32.73006 -117.17948 24 ft 27 kts 106°
2026-04-25 20:09 32.72952 -117.17731 20 ft 26 kts 92°
2026-04-25 20:09 32.72954 -117.17701 21 ft 0 kts 77°
2026-04-25 20:11 32.72977 -117.17630 24 ft 25 kts 50°
2026-04-25 20:11 32.73045 -117.17632 25 ft 5 kts 269°
2026-04-25 20:12 32.73052 -117.17680 24 ft 22 kts 285°
2026-04-25 20:12 32.73171 -117.18227 28 ft 111 kts 287°
2026-04-25 20:12 32.73442 -117.19371 152 ft 166 kts 285°
2026-04-25 20:12 32.73664 -117.20274 592 ft 177 kts 286°
2026-04-25 20:13 32.74143 -117.22157 2103 ft 180 kts 285°
2026-04-25 20:13 32.74552 -117.23630 2886 ft 193 kts 288°
2026-04-25 20:13 32.75006 -117.25186 3639 ft 209 kts 285°
2026-04-25 20:13 32.75404 -117.26933 4342 ft 229 kts 283°
2026-04-25 20:14 32.75801 -117.28810 5260 ft 238 kts 283°
2026-04-25 20:14 32.76224 -117.30729 6220 ft 243 kts 284°
2026-04-25 20:14 32.76623 -117.32702 7139 ft 246 kts 274°
2026-04-25 20:14 32.76434 -117.34678 8231 ft 240 kts 249°
2026-04-25 20:15 32.75545 -117.36320 9355 ft 238 kts 224°
2026-04-25 20:15 32.74116 -117.37308 10379 ft 246 kts 203°
2026-04-25 20:15 32.72389 -117.37502 10485 ft 256 kts 175°
2026-04-25 20:15 32.70733 -117.36634 10590 ft 271 kts 148°
2026-04-25 20:16 32.69439 -117.34934 10689 ft 282 kts 133°
2026-04-25 20:16 32.68313 -117.33020 10803 ft 283 kts 130°
2026-04-25 20:16 32.67201 -117.31085 10969 ft 285 kts 131°
2026-04-25 20:16 32.66052 -117.29164 11161 ft 285 kts 133°
2026-04-25 20:17 32.64875 -117.27267 11318 ft 285 kts 134°
2026-04-25 20:17 32.63737 -117.25337 11483 ft 290 kts 125°
2026-04-25 20:17 32.63023 -117.23055 11672 ft 302 kts 106°
2026-04-25 20:17 32.62768 -117.20530 11865 ft 321 kts 100°
2026-04-25 20:18 32.62524 -117.17780 12101 ft 349 kts 100°
2026-04-25 20:18 32.62255 -117.14803 12303 ft 375 kts 100°
2026-04-25 20:18 32.62127 -117.11656 12508 ft 388 kts 90°
2026-04-25 20:18 32.62566 -117.08479 12719 ft 394 kts 76°
2026-04-25 20:19 32.63513 -117.05411 12923 ft 398 kts 69°
2026-04-25 20:19 32.64513 -117.02398 13101 ft 399 kts 70°
2026-04-25 20:19 32.65524 -116.99328 13313 ft 401 kts 70°
2026-04-25 20:19 32.66343 -116.96167 13520 ft 401 kts 80°
2026-04-25 20:20 32.66726 -116.92898 13732 ft 399 kts 90°
2026-04-25 20:20 32.66798 -116.89608 13922 ft 399 kts 92°
2026-04-25 20:20 32.66865 -116.86308 14109 ft 401 kts 92°
2026-04-25 20:20 32.66942 -116.82985 14295 ft 403 kts 92°
2026-04-25 20:21 32.67021 -116.79654 14486 ft 404 kts 92°
2026-04-25 20:21 32.67100 -116.76317 14676 ft 405 kts 92°
2026-04-25 20:21 32.67153 -116.72978 14861 ft 405 kts 94°
2026-04-25 20:21 32.67109 -116.69636 15052 ft 405 kts 95°
2026-04-25 20:22 32.67030 -116.66289 15246 ft 406 kts 96°
2026-04-25 20:22 32.66977 -116.64065 15378 ft 407 kts 95°
2026-04-25 20:22 32.66883 -116.59570 15635 ft 408 kts 95°
2026-04-25 20:22 32.66821 -116.56198 15815 ft 409 kts 95°
2026-04-25 20:23 32.66759 -116.52801 16023 ft 413 kts 95°
2026-04-25 20:23 32.66703 -116.49396 16203 ft 413 kts 95°
2026-04-25 20:23 32.66645 -116.45985 16402 ft 414 kts 95°
2026-04-25 20:23 32.66616 -116.42556 16602 ft 418 kts 91°
2026-04-25 20:24 32.66887 -116.39111 16807 ft 420 kts 86°
2026-04-25 20:24 32.67209 -116.35664 16998 ft 420 kts 86°
2026-04-25 20:24 32.67526 -116.32217 17206 ft 421 kts 86°
2026-04-25 20:24 32.67840 -116.28756 17408 ft 422 kts 86°
2026-04-25 20:25 32.68153 -116.25285 17607 ft 424 kts 86°
2026-04-25 20:25 32.68466 -116.21794 17816 ft 426 kts 86°
2026-04-25 20:25 32.68780 -116.18294 18031 ft 427 kts 86°
2026-04-25 20:25 32.69094 -116.14779 18236 ft 429 kts 86°
2026-04-25 20:26 32.69407 -116.11249 18409 ft 432 kts 87°
2026-04-25 20:26 32.69721 -116.07716 18590 ft 430 kts 86°
2026-04-25 20:26 32.70035 -116.04180 18782 ft 432 kts 86°
2026-04-25 20:26 32.70353 -116.00627 18946 ft 434 kts 86°
2026-04-25 20:27 32.70683 -115.97057 19122 ft 435 kts 86°
2026-04-25 20:27 32.71018 -115.93479 19305 ft 436 kts 86°
2026-04-25 20:27 32.71351 -115.89901 19488 ft 437 kts 86°
2026-04-25 20:27 32.71684 -115.86306 19670 ft 439 kts 86°
2026-04-25 20:28 32.72015 -115.82703 19857 ft 440 kts 86°
2026-04-25 20:28 32.72346 -115.79087 20047 ft 441 kts 86°
2026-04-25 20:28 32.72672 -115.75510 20226 ft 442 kts 86°
2026-04-25 20:28 32.73006 -115.71830 20422 ft 443 kts 86°
2026-04-25 20:29 32.73337 -115.68182 20600 ft 445 kts 86°
2026-04-25 20:29 32.73667 -115.64519 20798 ft 447 kts 86°
2026-04-25 20:29 32.73992 -115.60898 20961 ft 447 kts 86°
2026-04-25 20:29 32.74326 -115.57169 21165 ft 449 kts 86°
2026-04-25 20:30 32.74651 -115.53526 21358 ft 450 kts 86°
2026-04-25 20:30 32.74921 -115.49815 21563 ft 450 kts 91°
2026-04-25 20:30 32.75002 -115.46091 21772 ft 452 kts 91°
2026-04-25 20:30 32.75091 -115.42353 21980 ft 453 kts 91°
2026-04-25 20:31 32.75182 -115.38603 22193 ft 455 kts 91°
2026-04-25 20:31 32.75273 -115.34840 22407 ft 457 kts 91°
2026-04-25 20:31 32.75368 -115.31063 22631 ft 460 kts 91°
2026-04-25 20:31 32.75465 -115.27256 22850 ft 462 kts 91°
2026-04-25 20:32 32.75550 -115.23440 23062 ft 463 kts 92°
2026-04-25 20:32 32.75619 -115.19609 23275 ft 465 kts 92°
2026-04-25 20:32 32.75672 -115.15766 23483 ft 466 kts 92°
2026-04-25 20:32 32.75710 -115.11912 23661 ft 467 kts 93°
2026-04-25 20:33 32.75731 -115.08042 23838 ft 469 kts 93°
2026-04-25 20:33 32.75736 -115.04169 24016 ft 470 kts 94°
2026-04-25 20:33 32.75726 -115.00282 24184 ft 472 kts 94°
2026-04-25 20:33 32.75709 -114.97690 24305 ft 475 kts 94°
2026-04-25 20:34 32.75654 -114.92441 24547 ft 475 kts 95°
2026-04-25 20:34 32.75595 -114.88510 24736 ft 477 kts 95°
2026-04-25 20:34 32.75519 -114.84566 24926 ft 478 kts 95°
2026-04-25 20:34 32.75426 -114.80609 25112 ft 480 kts 96°
2026-04-25 20:35 32.75317 -114.76644 25300 ft 481 kts 96°
2026-04-25 20:35 32.75191 -114.72666 25489 ft 482 kts 96°
2026-04-25 20:35 32.75049 -114.68678 25685 ft 484 kts 96°
2026-04-25 20:35 32.74890 -114.64681 25878 ft 485 kts 97°
2026-04-25 20:36 32.74715 -114.60671 26073 ft 487 kts 97°
2026-04-25 20:36 32.74523 -114.56650 26267 ft 488 kts 97°
2026-04-25 20:36 32.74314 -114.52619 26467 ft 490 kts 98°
2026-04-25 20:36 32.74088 -114.48573 26637 ft 493 kts 98°
2026-04-25 20:37 32.73844 -114.44499 26830 ft 496 kts 98°
2026-04-25 20:37 32.73583 -114.40414 27033 ft 497 kts 99°
2026-04-25 20:37 32.73306 -114.36319 27235 ft 497 kts 99°
2026-04-25 20:37 32.73018 -114.32227 27441 ft 500 kts 99°
2026-04-25 20:38 32.72709 -114.28098 27650 ft 503 kts 100°
2026-04-25 20:38 32.72380 -114.23939 27854 ft 504 kts 100°
2026-04-25 20:38 32.72039 -114.19818 28061 ft 505 kts 101°
2026-04-25 20:38 32.71683 -114.15717 28269 ft 507 kts 101°
2026-04-25 20:39 32.71304 -114.11544 28476 ft 509 kts 101°
2026-04-25 20:39 32.70908 -114.07363 28688 ft 510 kts 101°
2026-04-25 20:39 32.70494 -114.03164 28898 ft 514 kts 101°
2026-04-25 20:39 32.70205 -114.00309 29041 ft 516 kts 102°
2026-04-25 20:40 32.69971 -113.94596 29326 ft 524 kts 89°
2026-04-25 20:40 32.70539 -113.90361 29540 ft 530 kts 76°
2026-04-25 20:40 32.71764 -113.86233 29762 ft 533 kts 64°
2026-04-25 20:40 32.73606 -113.82418 29979 ft 533 kts 52°
2026-04-25 20:41 32.75979 -113.79062 30173 ft 531 kts 43°
2026-04-25 20:41 32.78410 -113.75733 30359 ft 536 kts 52°
2026-04-25 20:41 32.80361 -113.71915 30541 ft 543 kts 64°
2026-04-25 20:41 32.81719 -113.67728 30732 ft 546 kts 75°
2026-04-25 20:42 32.82573 -113.63330 30928 ft 546 kts 81°
2026-04-25 20:42 32.83208 -113.58877 31118 ft 546 kts 83°
2026-04-25 20:42 32.83784 -113.54417 31319 ft 546 kts 84°
2026-04-25 20:42 32.84365 -113.49954 31516 ft 547 kts 83°
2026-04-25 20:43 32.84964 -113.45490 31706 ft 547 kts 83°
2026-04-25 20:43 32.85576 -113.41025 31912 ft 548 kts 83°
2026-04-25 20:43 32.86197 -113.36551 32114 ft 548 kts 83°
2026-04-25 20:43 32.86819 -113.32077 32318 ft 549 kts 83°
2026-04-25 20:44 32.87441 -113.27598 32533 ft 549 kts 83°
2026-04-25 20:44 32.88062 -113.23114 32725 ft 549 kts 83°
2026-04-25 20:44 32.88682 -113.18627 32842 ft 550 kts 83°
2026-04-25 20:44 32.89301 -113.14137 32850 ft 550 kts 83°
2026-04-25 20:45 32.90530 -113.05168 32855 ft 549 kts 83°
2026-04-25 20:45 32.91754 -112.96187 32869 ft 550 kts 83°
2026-04-25 20:46 32.92972 -112.87211 32878 ft 549 kts 83°
2026-04-25 20:46 32.94182 -112.78235 32888 ft 550 kts 83°
2026-04-25 20:47 32.95108 -112.69188 32889 ft 548 kts 94°
2026-04-25 20:47 32.94064 -112.60348 32885 ft 534 kts 112°
2026-04-25 20:48 32.92148 -112.51807 32876 ft 534 kts 111°
2026-04-25 20:48 32.90258 -112.43316 32827 ft 535 kts 112°
2026-04-25 20:49 32.88346 -112.34759 32860 ft 535 kts 112°
2026-04-25 20:49 32.86425 -112.26209 32859 ft 535 kts 112°
2026-04-25 20:50 32.84498 -112.17659 32858 ft 535 kts 112°
2026-04-25 20:50 32.82562 -112.09098 32867 ft 536 kts 112°
2026-04-25 20:51 32.80620 -112.00540 32873 ft 536 kts 112°
2026-04-25 20:51 32.78671 -111.91980 32882 ft 536 kts 112°
2026-04-25 20:52 32.77047 -111.84871 32886 ft 536 kts 112°
2026-04-25 20:52 32.74747 -111.74846 32880 ft 540 kts 112°
2026-04-25 20:53 32.72772 -111.66254 32873 ft 539 kts 112°
2026-04-25 20:53 32.70791 -111.57672 32852 ft 539 kts 112°
2026-04-25 20:54 32.68817 -111.49149 32880 ft 539 kts 112°
2026-04-25 20:54 32.66825 -111.40577 32895 ft 539 kts 112°
2026-04-25 20:55 32.64825 -111.32004 32905 ft 539 kts 112°
2026-04-25 20:55 32.62821 -111.23438 32910 ft 539 kts 112°
2026-04-25 20:56 32.60811 -111.14874 32905 ft 539 kts 112°
2026-04-25 20:56 32.58794 -111.06315 32891 ft 539 kts 112°
2026-04-25 20:57 32.56773 -110.97757 32888 ft 539 kts 112°
2026-04-25 20:57 32.54746 -110.89209 32883 ft 539 kts 112°
2026-04-25 20:58 32.52711 -110.80658 32890 ft 539 kts 112°
2026-04-25 20:58 32.50670 -110.72103 32881 ft 539 kts 112°
2026-04-25 20:59 32.48618 -110.63550 32881 ft 541 kts 112°
2026-04-25 20:59 32.46568 -110.55006 32881 ft 537 kts 112°
2026-04-25 21:00 32.45212 -110.49372 32879 ft 538 kts 112°
2026-04-25 21:01 32.41426 -110.33727 32844 ft 540 kts 112°
2026-04-25 21:01 32.39690 -110.26577 32846 ft 540 kts 112°
2026-04-25 21:02 32.37609 -110.18038 32830 ft 540 kts 112°
2026-04-25 21:02 32.35520 -110.09497 32817 ft 542 kts 112°
2026-04-25 21:03 32.33420 -110.00933 32796 ft 541 kts 112°
2026-04-25 21:03 32.31338 -109.92459 32793 ft 540 kts 112°
2026-04-25 21:04 32.29322 -109.83900 32789 ft 544 kts 106°
2026-04-25 21:04 32.28213 -109.74999 32782 ft 549 kts 102°
2026-04-25 21:05 32.27156 -109.66080 32780 ft 548 kts 102°
2026-04-25 21:05 32.26084 -109.57165 32776 ft 548 kts 103°
2026-04-25 21:06 32.25000 -109.48260 32774 ft 548 kts 103°
2026-04-25 21:06 32.23904 -109.39349 32777 ft 548 kts 102°
2026-04-25 21:07 32.22803 -109.30438 32777 ft 549 kts 103°
2026-04-25 21:07 32.21695 -109.21526 32771 ft 548 kts 103°
2026-04-25 21:08 32.20583 -109.12623 32769 ft 548 kts 103°
2026-04-25 21:08 32.19464 -109.03729 32768 ft 547 kts 102°
2026-04-25 21:09 32.17777 -108.90404 32765 ft 547 kts 103°
2026-04-25 21:09 32.16645 -108.81524 32763 ft 547 kts 103°
2026-04-25 21:10 32.15505 -108.72645 32887 ft 548 kts 103°
2026-04-25 21:10 32.14359 -108.63759 32885 ft 548 kts 103°
2026-04-25 21:11 32.13205 -108.54869 32859 ft 548 kts 103°
2026-04-25 21:11 32.12047 -108.45987 32818 ft 548 kts 103°
2026-04-25 21:12 32.10887 -108.37163 32768 ft 549 kts 102°
2026-04-25 21:12 32.09906 -108.29715 32765 ft 548 kts 102°
2026-04-25 21:13 32.08538 -108.19398 32762 ft 548 kts 102°
2026-04-25 21:13 32.07354 -108.10519 32765 ft 548 kts 103°
2026-04-25 21:14 32.06164 -108.01647 32760 ft 548 kts 103°
2026-04-25 21:14 32.04968 -107.92778 32760 ft 548 kts 103°
2026-04-25 21:15 32.03765 -107.83911 32760 ft 548 kts 103°
2026-04-25 21:15 32.02557 -107.75047 32846 ft 548 kts 103°
2026-04-25 21:16 32.01338 -107.66163 32832 ft 550 kts 103°
2026-04-25 21:16 32.00114 -107.57274 32797 ft 549 kts 103°
2026-04-25 21:17 31.98885 -107.48396 32760 ft 549 kts 103°
2026-04-25 21:17 31.97649 -107.39520 32733 ft 549 kts 103°
2026-04-25 21:18 31.96406 -107.30646 32738 ft 549 kts 103°
2026-04-25 21:18 31.95160 -107.21793 32733 ft 546 kts 103°
2026-04-25 21:19 31.93922 -107.13037 32731 ft 546 kts 103°
2026-04-25 21:19 31.92666 -107.04209 32722 ft 547 kts 103°
2026-04-25 21:20 31.91619 -106.96887 32725 ft 546 kts 103°
2026-04-25 21:20 31.90140 -106.86585 32903 ft 546 kts 103°
2026-04-25 21:21 31.88868 -106.77770 32935 ft 546 kts 103°
2026-04-25 21:21 31.87590 -106.68967 32944 ft 546 kts 102°
2026-04-25 21:22 31.86299 -106.60125 32934 ft 548 kts 102°
2026-04-25 21:22 31.85005 -106.51294 32908 ft 548 kts 103°
2026-04-25 21:23 31.83704 -106.42459 32925 ft 549 kts 103°
2026-04-25 21:23 31.82400 -106.33633 32925 ft 548 kts 102°
2026-04-25 21:24 31.80785 -106.24948 32896 ft 539 kts 110°
2026-04-25 21:24 31.79727 -106.20730 32713 ft 538 kts 110°
2026-04-25 21:24 31.78685 -106.16498 32514 ft 541 kts 110°
2026-04-25 21:25 31.77642 -106.12250 32254 ft 541 kts 110°
2026-04-25 21:25 31.76597 -106.08004 32011 ft 541 kts 110°
2026-04-25 21:25 31.75548 -106.03763 31769 ft 541 kts 110°
2026-04-25 21:25 31.74497 -105.99527 31528 ft 541 kts 110°
2026-04-25 21:26 31.73437 -105.95277 31288 ft 542 kts 109°
2026-04-25 21:26 31.72390 -105.91080 31080 ft 542 kts 109°
2026-04-25 21:26 31.71330 -105.86835 30854 ft 542 kts 109°
2026-04-25 21:26 31.70269 -105.82587 30640 ft 542 kts 109°
2026-04-25 21:27 31.69205 -105.78339 30431 ft 541 kts 109°
2026-04-25 21:27 31.68146 -105.74113 30216 ft 539 kts 109°
2026-04-25 21:27 31.67088 -105.69902 30010 ft 537 kts 109°
2026-04-25 21:27 31.66033 -105.65707 29789 ft 535 kts 109°
2026-04-25 21:28 31.64980 -105.61530 29551 ft 533 kts 109°
2026-04-25 21:28 31.63933 -105.57379 29289 ft 528 kts 109°
2026-04-25 21:28 31.62893 -105.53264 29043 ft 525 kts 109°
2026-04-25 21:28 31.61855 -105.49162 28816 ft 523 kts 109°
2026-04-25 21:29 31.59784 -105.40998 28749 ft 523 kts 109°
2026-04-25 21:29 31.57702 -105.32824 28750 ft 523 kts 109°
2026-04-25 21:30 31.55616 -105.24657 28746 ft 523 kts 109°
2026-04-25 21:30 31.53881 -105.17870 28755 ft 523 kts 109°
2026-04-25 21:31 31.51433 -105.08327 28749 ft 523 kts 109°
2026-04-25 21:31 31.49335 -105.00177 28752 ft 523 kts 109°
2026-04-25 21:32 31.47239 -104.92059 28505 ft 517 kts 109°
2026-04-25 21:32 31.46200 -104.88048 27985 ft 513 kts 109°
2026-04-25 21:32 31.45167 -104.84070 27406 ft 508 kts 109°
2026-04-25 21:33 31.44148 -104.80133 26829 ft 503 kts 109°
2026-04-25 21:33 31.43138 -104.76236 26275 ft 498 kts 109°
2026-04-25 21:33 31.42143 -104.72403 26080 ft 487 kts 109°
2026-04-25 21:33 31.41161 -104.68635 26000 ft 496 kts 109°
2026-04-25 21:34 31.40151 -104.64771 25889 ft 496 kts 109°
2026-04-25 21:34 31.39146 -104.60925 25781 ft 493 kts 109°
2026-04-25 21:34 31.38144 -104.57092 25750 ft 493 kts 109°
2026-04-25 21:34 31.37138 -104.53252 25752 ft 493 kts 109°
2026-04-25 21:35 31.36132 -104.49416 25747 ft 493 kts 109°
2026-04-25 21:35 31.35125 -104.45581 25752 ft 493 kts 109°
2026-04-25 21:35 31.34118 -104.41749 25752 ft 493 kts 109°
2026-04-25 21:35 31.33108 -104.37916 25751 ft 493 kts 109°
2026-04-25 21:36 31.32097 -104.34083 25748 ft 493 kts 109°
2026-04-25 21:36 31.31086 -104.30253 25747 ft 493 kts 109°
2026-04-25 21:36 31.30074 -104.26425 25751 ft 493 kts 109°
2026-04-25 21:36 31.29059 -104.22594 25747 ft 493 kts 109°
2026-04-25 21:37 31.28044 -104.18765 25723 ft 493 kts 109°
2026-04-25 21:37 31.27371 -104.16231 25746 ft 492 kts 109°
2026-04-25 21:37 31.26011 -104.11115 25753 ft 493 kts 109°
2026-04-25 21:37 31.24994 -104.07293 25752 ft 493 kts 109°
2026-04-25 21:38 31.23975 -104.03471 25740 ft 493 kts 109°
2026-04-25 21:38 31.22957 -103.99649 25738 ft 493 kts 109°
2026-04-25 21:38 31.21935 -103.95825 25739 ft 493 kts 109°
2026-04-25 21:38 31.20912 -103.92006 25720 ft 493 kts 109°
2026-04-25 21:39 31.19888 -103.88186 25733 ft 493 kts 109°
2026-04-25 21:39 31.18863 -103.84366 25749 ft 493 kts 109°
2026-04-25 21:39 31.17835 -103.80544 25744 ft 493 kts 109°
2026-04-25 21:39 31.16807 -103.76723 25735 ft 493 kts 109°
2026-04-25 21:40 31.15793 -103.72959 25739 ft 493 kts 109°
2026-04-25 21:40 31.14749 -103.69086 25742 ft 493 kts 109°
2026-04-25 21:40 31.13717 -103.65267 25745 ft 493 kts 109°
2026-04-25 21:40 31.12686 -103.61454 25739 ft 493 kts 109°
2026-04-25 21:41 31.11667 -103.57691 25746 ft 493 kts 109°
2026-04-25 21:41 31.10619 -103.53826 25742 ft 493 kts 110°
2026-04-25 21:41 31.09583 -103.50012 25739 ft 493 kts 110°
2026-04-25 21:41 31.08547 -103.46203 25704 ft 492 kts 109°
2026-04-25 21:42 31.07525 -103.42449 25717 ft 493 kts 109°
2026-04-25 21:42 31.06471 -103.38582 25711 ft 493 kts 109°
2026-04-25 21:42 31.05432 -103.34772 25696 ft 493 kts 109°
2026-04-25 21:42 31.04391 -103.30963 25698 ft 493 kts 109°
2026-04-25 21:43 31.03350 -103.27158 25698 ft 493 kts 109°
2026-04-25 21:43 31.02306 -103.23351 25701 ft 493 kts 109°
2026-04-25 21:43 31.01278 -103.19601 25693 ft 493 kts 109°
2026-04-25 21:43 31.00233 -103.15798 25695 ft 492 kts 109°
2026-04-25 21:44 30.99189 -103.12002 25693 ft 492 kts 109°
2026-04-25 21:44 30.98143 -103.08205 25693 ft 491 kts 109°
2026-04-25 21:44 30.96052 -103.00621 25698 ft 491 kts 110°
2026-04-25 21:45 30.95007 -102.96831 25700 ft 491 kts 109°
2026-04-25 21:45 30.94659 -102.95549 25701 ft 492 kts 109°
2026-04-25 21:45 30.93023 -102.89207 25840 ft 492 kts 108°
2026-04-25 21:45 30.92054 -102.85385 25767 ft 492 kts 108°
2026-04-25 21:46 30.91082 -102.81574 25650 ft 490 kts 108°
2026-04-25 21:46 30.90109 -102.77779 25512 ft 489 kts 108°
2026-04-25 21:46 30.89132 -102.73992 25392 ft 489 kts 108°
2026-04-25 21:46 30.88153 -102.70209 25238 ft 486 kts 108°
2026-04-25 21:47 30.87177 -102.66446 25101 ft 485 kts 108°
2026-04-25 21:47 30.86203 -102.62694 24978 ft 484 kts 108°
2026-04-25 21:47 30.85231 -102.58954 24830 ft 483 kts 108°
2026-04-25 21:47 30.84260 -102.55222 24734 ft 481 kts 108°
2026-04-25 21:48 30.83288 -102.51495 24703 ft 482 kts 108°
2026-04-25 21:48 30.82328 -102.47816 24697 ft 482 kts 108°
2026-04-25 21:48 30.81353 -102.44086 24696 ft 482 kts 108°
2026-04-25 21:48 30.80377 -102.40358 24711 ft 482 kts 108°
2026-04-25 21:49 30.79398 -102.36622 24704 ft 483 kts 108°
2026-04-25 21:49 30.78413 -102.32867 24700 ft 489 kts 108°
2026-04-25 21:49 30.77424 -102.29100 24699 ft 484 kts 108°
2026-04-25 21:49 30.76444 -102.25370 24699 ft 482 kts 108°
2026-04-25 21:50 30.75465 -102.21652 24699 ft 483 kts 108°
2026-04-25 21:50 30.74476 -102.17901 24700 ft 483 kts 108°
2026-04-25 21:50 30.73491 -102.14167 24700 ft 483 kts 108°
2026-04-25 21:50 30.72831 -102.11642 24698 ft 483 kts 108°
2026-04-25 21:51 30.71553 -102.06695 24696 ft 483 kts 108°
2026-04-25 21:51 30.70911 -102.04215 24692 ft 483 kts 108°
2026-04-25 21:51 30.69904 -102.00441 24696 ft 483 kts 109°
2026-04-25 21:51 30.68897 -101.96727 24574 ft 482 kts 109°
2026-04-25 21:52 30.67907 -101.93066 24197 ft 480 kts 109°
2026-04-25 21:52 30.66908 -101.89347 23957 ft 471 kts 108°
2026-04-25 21:52 30.65953 -101.85775 23869 ft 471 kts 108°
2026-04-25 21:52 30.64978 -101.82132 23782 ft 474 kts 108°
2026-04-25 21:53 30.64003 -101.78483 23709 ft 471 kts 108°
2026-04-25 21:53 30.63033 -101.74859 23707 ft 470 kts 109°
2026-04-25 21:53 30.62059 -101.71225 23703 ft 471 kts 109°
2026-04-25 21:53 30.61086 -101.67598 23701 ft 470 kts 108°
2026-04-25 21:54 30.60111 -101.63973 23706 ft 472 kts 108°
2026-04-25 21:54 30.59136 -101.60341 23704 ft 472 kts 108°
2026-04-25 21:54 30.58159 -101.56709 23713 ft 472 kts 108°
2026-04-25 21:54 30.57179 -101.53075 23712 ft 472 kts 108°
2026-04-25 21:55 30.56197 -101.49443 23711 ft 472 kts 108°
2026-04-25 21:55 30.55215 -101.45812 23710 ft 472 kts 108°
2026-04-25 21:55 30.54232 -101.42180 23718 ft 472 kts 108°
2026-04-25 21:55 30.53249 -101.38552 23718 ft 472 kts 108°
2026-04-25 21:56 30.52265 -101.34923 23716 ft 472 kts 108°
2026-04-25 21:56 30.51612 -101.32518 23715 ft 472 kts 108°
2026-04-25 21:56 30.50301 -101.27673 23720 ft 470 kts 108°
2026-04-25 21:56 30.49369 -101.24039 23762 ft 470 kts 107°
2026-04-25 21:57 30.48459 -101.20392 23762 ft 471 kts 107°
2026-04-25 21:57 30.47551 -101.16746 23748 ft 471 kts 107°
2026-04-25 21:57 30.46639 -101.13107 23748 ft 470 kts 107°
2026-04-25 21:57 30.45720 -101.09463 23746 ft 471 kts 107°
2026-04-25 21:58 30.44799 -101.05828 23737 ft 470 kts 107°
2026-04-25 21:58 30.43876 -101.02191 23729 ft 470 kts 107°
2026-04-25 21:58 30.42950 -100.98556 23736 ft 471 kts 107°
2026-04-25 21:58 30.42024 -100.94922 23745 ft 471 kts 107°
2026-04-25 21:59 30.41096 -100.91285 23757 ft 471 kts 107°
2026-04-25 21:59 30.40167 -100.87651 23762 ft 471 kts 107°
2026-04-25 21:59 30.39238 -100.84020 23777 ft 471 kts 107°
2026-04-25 22:00 30.37376 -100.76754 23784 ft 471 kts 107°
2026-04-25 22:00 30.36442 -100.73117 23786 ft 471 kts 107°
2026-04-25 22:00 30.35510 -100.69489 23786 ft 471 kts 107°
2026-04-25 22:00 30.34575 -100.65858 23782 ft 471 kts 107°
2026-04-25 22:01 30.33639 -100.62226 23776 ft 470 kts 108°
2026-04-25 22:01 30.32704 -100.58602 23767 ft 470 kts 108°
2026-04-25 22:01 30.31766 -100.54975 23755 ft 470 kts 107°
2026-04-25 22:01 30.31146 -100.52579 23748 ft 470 kts 107°
2026-04-25 22:02 30.29891 -100.47733 23731 ft 470 kts 107°
2026-04-25 22:02 30.28952 -100.44112 23719 ft 470 kts 108°
2026-04-25 22:02 30.28025 -100.40544 23715 ft 470 kts 107°
2026-04-25 22:02 30.27084 -100.36924 23712 ft 470 kts 108°
2026-04-25 22:03 30.26154 -100.33305 23715 ft 470 kts 107°
2026-04-25 22:03 30.25216 -100.29690 23683 ft 468 kts 108°
2026-04-25 22:03 30.24269 -100.26084 23507 ft 469 kts 108°
2026-04-25 22:03 30.23320 -100.22476 23105 ft 468 kts 107°
2026-04-25 22:04 30.22393 -100.18892 22563 ft 462 kts 107°
2026-04-25 22:04 30.21479 -100.15353 22037 ft 456 kts 108°
2026-04-25 22:04 30.20562 -100.11876 21532 ft 449 kts 108°
2026-04-25 22:04 30.19652 -100.08447 21033 ft 445 kts 108°
2026-04-25 22:05 30.18747 -100.05036 20545 ft 442 kts 108°
2026-04-25 22:05 30.17854 -100.01656 20053 ft 437 kts 108°
2026-04-25 22:05 30.16852 -99.98364 19584 ft 432 kts 112°
2026-04-25 22:05 30.15815 -99.95111 19107 ft 430 kts 111°
2026-04-25 22:06 30.14802 -99.91885 18640 ft 425 kts 111°
2026-04-25 22:06 30.13794 -99.88697 18181 ft 421 kts 112°
2026-04-25 22:06 30.12786 -99.85525 17664 ft 419 kts 112°
2026-04-25 22:06 30.11792 -99.82387 17168 ft 413 kts 112°
2026-04-25 22:07 30.10808 -99.79294 16641 ft 408 kts 112°
2026-04-25 22:07 30.10162 -99.77266 16304 ft 404 kts 112°
2026-04-25 22:07 30.08868 -99.73205 15662 ft 401 kts 112°
2026-04-25 22:07 30.07913 -99.70204 15273 ft 393 kts 112°
2026-04-25 22:08 30.06970 -99.67256 15180 ft 395 kts 112°
2026-04-25 22:08 30.06012 -99.64267 15085 ft 397 kts 112°
2026-04-25 22:08 30.05058 -99.61288 14989 ft 395 kts 112°
2026-04-25 22:08 30.04110 -99.58327 14965 ft 393 kts 112°
2026-04-25 22:09 30.03159 -99.55361 14958 ft 394 kts 112°
2026-04-25 22:09 30.02208 -99.52394 14963 ft 394 kts 112°
2026-04-25 22:09 30.01256 -99.49428 14962 ft 394 kts 112°
2026-04-25 22:09 30.00304 -99.46463 14962 ft 394 kts 112°
2026-04-25 22:10 29.99349 -99.43494 14941 ft 395 kts 112°
2026-04-25 22:10 29.98393 -99.40524 14851 ft 395 kts 112°
2026-04-25 22:10 29.97438 -99.37558 14764 ft 394 kts 112°
2026-04-25 22:10 29.96486 -99.34593 14576 ft 394 kts 112°
2026-04-25 22:11 29.95548 -99.31685 14331 ft 390 kts 112°
2026-04-25 22:11 29.94610 -99.28779 14353 ft 380 kts 113°
2026-04-25 22:11 29.93665 -99.25874 14803 ft 393 kts 112°
2026-04-25 22:11 29.92705 -99.22915 15077 ft 396 kts 112°
2026-04-25 22:12 29.91732 -99.19938 15003 ft 396 kts 114°
2026-04-25 22:12 29.90683 -99.17008 14691 ft 394 kts 115°
2026-04-25 22:12 29.89605 -99.14126 14371 ft 389 kts 116°
2026-04-25 22:12 29.88881 -99.12201 14155 ft 387 kts 116°
2026-04-25 22:13 29.87477 -99.08443 13728 ft 385 kts 116°
2026-04-25 22:13 29.86427 -99.05610 13370 ft 384 kts 115°
2026-04-25 22:13 29.85390 -99.02798 13016 ft 379 kts 115°
2026-04-25 22:13 29.84368 -99.00023 12661 ft 375 kts 115°
2026-04-25 22:14 29.83352 -98.97265 12299 ft 373 kts 115°
2026-04-25 22:14 29.82303 -98.94556 11943 ft 367 kts 117°
2026-04-25 22:14 29.81194 -98.91919 11595 ft 365 kts 118°
2026-04-25 22:14 29.80075 -98.89311 11256 ft 361 kts 118°
2026-04-25 22:15 29.78972 -98.86730 11111 ft 358 kts 118°
2026-04-25 22:15 29.77874 -98.84151 11164 ft 355 kts 119°
2026-04-25 22:15 29.76724 -98.81727 12550 ft 338 kts 120°
2026-04-25 22:16 29.74582 -98.76688 12258 ft 375 kts 118°
2026-04-25 22:16 29.73363 -98.73942 10493 ft 392 kts 123°
2026-04-25 22:16 29.71748 -98.71476 9666 ft 378 kts 132°
2026-04-25 22:16 29.70038 -98.69314 9390 ft 351 kts 133°
2026-04-25 22:17 29.68537 -98.67228 9096 ft 327 kts 129°
2026-04-25 22:17 29.67131 -98.65177 7876 ft 338 kts 130°
2026-04-25 22:17 29.65532 -98.62896 6928 ft 386 kts 130°
2026-04-25 22:17 29.63846 -98.60470 6050 ft 380 kts 131°
2026-04-25 22:18 29.62167 -98.58241 4839 ft 368 kts 134°
2026-04-25 22:18 29.60467 -98.56184 4121 ft 338 kts 136°
2026-04-25 22:18 29.59048 -98.54461 3578 ft 258 kts 135°
2026-04-25 22:18 29.57968 -98.53091 2797 ft 212 kts 133°
2026-04-25 22:19 29.57019 -98.51921 2169 ft 192 kts 136°
2026-04-25 22:19 29.56091 -98.50802 1610 ft 196 kts 134°
2026-04-25 22:19 29.55185 -98.49752 1470 ft 168 kts 134°
2026-04-25 22:19 29.54459 -98.48778 953 ft 155 kts 132°
2026-04-25 22:20 29.53790 -98.47935 840 ft 126 kts 134°
2026-04-25 22:20 29.53216 -98.47210 1183 ft 138 kts 132°
2026-04-25 22:20 29.52457 -98.46231 1542 ft 187 kts 134°
2026-04-25 22:20 29.51433 -98.45149 2150 ft 215 kts 146°
2026-04-25 22:21 29.50118 -98.44638 2223 ft 201 kts 188°
2026-04-25 22:21 29.48965 -98.45400 2122 ft 196 kts 229°
2026-04-25 22:21 29.48049 -98.46470 2110 ft 182 kts 211°
2026-04-25 22:21 29.46771 -98.46713 2359 ft 206 kts 159°
2026-04-25 22:22 29.45345 -98.46003 3067 ft 243 kts 155°
2026-04-25 22:22 29.43716 -98.45097 3654 ft 275 kts 150°
2026-04-25 22:22 29.41924 -98.44078 4332 ft 299 kts 154°
2026-04-25 22:22 29.40035 -98.42989 5349 ft 307 kts 154°
2026-04-25 22:23 29.38092 -98.41812 6113 ft 328 kts 152°
2026-04-25 22:23 29.36067 -98.40355 6110 ft 346 kts 143°
2026-04-25 22:23 29.34455 -98.38400 5824 ft 333 kts 125°
2026-04-25 22:23 29.33324 -98.36214 5686 ft 300 kts 115°
2026-04-25 22:24 29.32824 -98.34005 5726 ft 281 kts 98°
2026-04-25 22:24 29.32675 -98.31868 5909 ft 257 kts 89°
2026-04-25 22:24 29.32401 -98.30035 6349 ft 210 kts 116°
2026-04-25 22:24 29.31410 -98.28869 6303 ft 208 kts 159°
2026-04-25 22:25 29.29993 -98.28485 5689 ft 221 kts 180°
2026-04-25 22:25 29.28439 -98.28958 4825 ft 247 kts 212°
2026-04-25 22:25 29.27436 -98.30533 4568 ft 243 kts 241°
2026-04-25 22:25 29.26404 -98.31855 4752 ft 211 kts 202°
2026-04-25 22:26 29.25042 -98.32027 4725 ft 194 kts 173°
2026-04-25 22:26 29.23668 -98.31815 4512 ft 223 kts 173°
2026-04-25 22:26 29.22021 -98.31220 4394 ft 278 kts 144°
2026-04-25 22:26 29.20879 -98.29273 4488 ft 323 kts 107°
2026-04-25 22:27 29.21007 -98.26551 4288 ft 361 kts 80°
2026-04-25 22:27 29.21634 -98.23883 4075 ft 331 kts 70°
2026-04-25 22:27 29.22668 -98.21605 4330 ft 338 kts 61°
2026-04-25 22:27 29.23907 -98.19226 5081 ft 352 kts 59°
2026-04-25 22:28 29.25335 -98.16916 5886 ft 355 kts 53°
2026-04-25 22:28 29.26842 -98.14797 5948 ft 333 kts 47°
2026-04-25 22:28 29.28550 -98.13059 5778 ft 337 kts 35°
2026-04-25 22:28 29.30829 -98.12162 5747 ft 350 kts
2026-04-25 22:29 29.33098 -98.12837 5456 ft 335 kts 329°
2026-04-25 22:29 29.34867 -98.14510 4993 ft 328 kts 308°
2026-04-25 22:29 29.36127 -98.16626 4869 ft 310 kts 301°
2026-04-25 22:30 29.38222 -98.20457 5194 ft 261 kts 297°
2026-04-25 22:30 29.39100 -98.22242 5187 ft 260 kts 296°
2026-04-25 22:30 29.39976 -98.24038 4917 ft 264 kts 296°
2026-04-25 22:30 29.40586 -98.25263 4515 ft 272 kts 297°
2026-04-25 22:31 29.41814 -98.27880 3718 ft 283 kts 295°
2026-04-25 22:31 29.42694 -98.29870 3482 ft 275 kts 294°
2026-04-25 22:31 29.43540 -98.31767 3464 ft 259 kts 294°
2026-04-25 22:31 29.44331 -98.33578 3321 ft 251 kts 291°
2026-04-25 22:32 29.45015 -98.35397 3162 ft 242 kts 287°
2026-04-25 22:32 29.45764 -98.37066 3163 ft 229 kts 294°
2026-04-25 22:32 29.46513 -98.38665 3002 ft 224 kts 297°
2026-04-25 22:32 29.47437 -98.40019 3055 ft 203 kts 309°
2026-04-25 22:33 29.48406 -98.41137 2846 ft 189 kts 313°
2026-04-25 22:33 29.49298 -98.42210 2446 ft 188 kts 308°
2026-04-25 22:33 29.50141 -98.43328 1974 ft 184 kts 309°
2026-04-25 22:33 29.51023 -98.44393 1526 ft 181 kts 311°
2026-04-25 22:34 29.51851 -98.45436 1114 ft 175 kts 309°
2026-04-25 22:34 29.52622 -98.46431 850 ft 157 kts 309°
2026-04-25 22:34 29.53205 -98.47198 795 ft 76 kts 313°
2026-04-25 22:34 29.53403 -98.47442 795 ft 17 kts 304°
2026-04-25 22:35 29.53391 -98.47528 795 ft 12 kts 238°
2026-04-25 22:35 29.53402 -98.47617 795 ft 14 kts 311°
2026-04-25 22:35 29.53479 -98.47719 795 ft 19 kts 309°
2026-04-25 22:35 29.53508 -98.47855 797 ft 18 kts 271°
2026-04-25 22:36 29.53569 -98.47977 798 ft 19 kts 307°
2026-04-25 22:36 29.53660 -98.48082 802 ft 17 kts 306°
2026-04-25 22:36 29.53647 -98.48145 803 ft 7 kts 222°
2026-04-25 22:36 29.53603 -98.48191 805 ft 9 kts 222°
2026-04-25 22:37 29.53596 -98.48198 805 ft 0 kts 222°